Regional Weather Roundup
Issued by NWS

Home | Current Version | Previous Version | Text Only | Print | Product List | Glossary Off
Versions: 1 2 3 4 5 6 7 8 9 10 11 12 13 14 15 16 17 18 19 20 21 22 23 24 25 26 27 28 29 30 31 32 33 34 35 36 37 38 39 40 41 42 43 44 45 46 47 48 49 50

000
ASUS45 KBOI 261410
RWRID
WEATHER ROUNDUP FOR IDAHO
NATIONAL WEATHER SERVICE BOISE ID
800 AM MDT TUE AUG 26 2014

NOTE: "FAIR" INDICATES FEW OR NO CLOUDS BELOW 12000 FEET
WITH NO SIGNIFICANT WEATHER AND/OR OBSTRUCTIONS TO VISIBILITY

IDZ012-014-261500-
SOUTHWEST IDAHO


CITY           SKY/WX    TMP DP  RH WIND       PRES   REMARKS
BOISE          CLEAR     57  48  72 CALM      30.11R
CALDWELL       CLEAR     52  39  62 E6        30.13R
MOUNTAIN HOME  CLEAR     51  51  97 E2        30.13R
$$

IDZ016-017-261500-
SOUTHCENTRAL IDAHO


CITY           SKY/WX    TMP DP  RH WIND       PRES   REMARKS
BURLEY         SUNNY     51  48  89 CALM      30.15R
JEROME         SUNNY     53  49  86 N6        30.16R
TWIN FALLS     SUNNY     56  47  71 S10       30.15R
$$

IDZ019>023-261500-
SOUTHEAST IDAHO


CITY           SKY/WX    TMP DP  RH WIND       PRES   REMARKS
IDAHO FALLS    MOSUNNY   46  44  93 CALM      30.20R
POCATELLO      CLOUDY    51  51 100 S6        30.19R FOG
REXBURG        PTSUNNY   45  42  89 NE3       30.20R
$$

IDZ006-010-011-018-031-032-261500-
CENTRAL IDAHO MOUNTAINS


CITY           SKY/WX    TMP DP  RH WIND       PRES   REMARKS
MCCALL         CLEAR     43  40  89 CALM      30.19R
HAILEY         MOSUNNY   46  45  93 NW9       30.24R
STANLEY          N/A     39  38  96 SE5       30.29R
SALMON         SUNNY     46  46 100 CALM      30.21R
CHALLIS        SUNNY     48  45  89 CALM      30.23R
$$

IDZ002-004-006-007-026-261500-
NORTHERN IDAHO


CITY           SKY/WX    TMP DP  RH WIND       PRES   REMARKS
LEWISTON       CLEAR     59  47  64 MISG      30.09R
LOWELL           N/A     50  48  93 N3        30.18R
COEUR D`ALENE  CLEAR     52  45  76 NE6       30.09R
MULLAN PASS    SUNNY     52  36  54 NW3       30.22R
$$



USA.gov is the U.S. government's official web portal to all federal, state and local government web resources and services.